Location: Westerlo
(51.0830°N, 4.9170°E)
Time: 20:40:18
(UTC+02:00)

ISS - Pass Details

Date: 22 April 2026
Orbit: 414 x 424 km, 51.6° (Epoch: 12 May)

Event Time Altitude Azimuth Distance (km) Brightness Sun altitude
Exits shadow 05:29:49 11° 210° (SSW) 1,427 -1.6 -9.4°
Maximum altitude 05:32:37 30° 149° (SSE) 778 -2.4 -9.1°
Drops below altitude 10° 05:35:38 10° 86° (E) 1,507 0.2 -8.7°
Sets 05:37:53 0° 75° (ENE) 2,377 1.8 -8.4°
